Regional Weather Roundup
Issued by NWS

Home | Current Version | Previous Version | Text Only | Print | Product List | Glossary Off
Versions: 1 2 3 4 5 6 7 8 9 10 11 12 13 14 15 16 17 18 19 20 21 22 23 24 25 26 27 28 29 30 31 32 33 34 35 36 37 38 39 40 41 42 43 44 45 46 47 48 49 50

000
ASUS43 KFSD 312102
RWRSD

WEATHER ROUNDUP FOR SOUTH DAKOTA
NATIONAL WEATHER SERVICE SIOUX FALLS SD
400 PM CDT THU JUL 31 2014

NOTE: "FAIR" INDICATES FEW OR NO CLOUDS BELOW 12,000 FEET WITH NO
SIGNIFICANT WEATHER AND/OR OBSTRUCTIONS TO VISIBILITY.


SDZ001>005-009-010-012>017-312200-
NORTHWEST AND NORTH CENTRAL SOUTH DAKOTA

CITY           SKY/WX    TMP DP  RH WIND       PRES   REMARKS
BUFFALO          N/A     89  45  21 W8        30.05F
FAITH            N/A     88  49  25 NW12G18   30.09S
MOBRIDGE       SUNNY     85  53  33 VRB3      30.04S
$$

SDZ012>016-024>037-041>051-057-063-072>074-312200-
SOUTHWEST AND SOUTH CENTRAL SOUTH DAKOTA

CITY           SKY/WX    TMP DP  RH WIND       PRES   REMARKS
RAPID CTY ARPT SUNNY     85  51  31 CALM      30.13F
PIERRE         SUNNY     86  52  30 VRB3      30.04F
CUSTER         PTSUNNY   74  49  41 E13       30.28S
ELLSWORTH AFB  SUNNY     86  47  25 CALM      30.13F
PHILIP         SUNNY     91  49  23 NW12G23   30.05F
PINE RIDGE     SUNNY     85  51  31 VRB5      30.15F
WINNER         MOCLDY    87  51  28 VRB5      30.06F
$$

SDZ004>011-016>023-039-040-312200-
NORTHEAST SOUTH DAKOTA

CITY           SKY/WX    TMP DP  RH WIND       PRES   REMARKS
ABERDEEN       SUNNY     81  54  39 NE9       30.05F
WATERTOWN      SUNNY     79  53  40 W7        30.07S
SISSETON         N/A     82  55  39 VRB5      30.04S
$$

SDZ017-020-022-023-036>040-048>070-312200-
SOUTHEAST SOUTH DAKOTA

CITY           SKY/WX    TMP DP  RH WIND       PRES   REMARKS
SIOUX FALLS    MOSUNNY   79  56  45 CALM      30.06F
HURON          MOSUNNY   82  52  35 W5        30.04F
CHAMBERLAIN    MOSUNNY   84  56  38 CALM      30.05F
MITCHELL       SUNNY     82  60  47 CALM      30.05F
YANKTON        MOSUNNY   73  61  64 NE10      30.07S
$$

ABBREVIATIONS USED IN REMARKS
   TC - TEMPERATURE IN CELSIUS
  WCI - WIND CHILL INDEX
   HX - HEAT INDEX
  VSB - VISIBILITY



USA.gov is the U.S. government's official web portal to all federal, state and local government web resources and services.